TimeCDT,TemperatureF,Dew PointF,Humidity,Sea Level PressureIn,VisibilityMPH,Wind Direction,Wind SpeedMPH,Gust SpeedMPH,PrecipitationIn,Events,Conditions,WindDirDegrees,DateUTC
12:56 AM,60.1,55.0,83,30.12,-9999.0,SW,3.5,-,N/A,,Unknown,220,2012-07-10 05:56:00
1:56 AM,60.1,55.9,86,30.12,-9999.0,Calm,Calm,-,N/A,,Unknown,0,2012-07-10 06:56:00
2:56 AM,59.0,55.0,87,30.12,-9999.0,Calm,Calm,-,N/A,,Unknown,0,2012-07-10 07:56:00
3:56 AM,60.1,55.0,83,30.12,-9999.0,WSW,3.5,-,N/A,,Unknown,240,2012-07-10 08:56:00
4:56 AM,60.1,55.0,83,30.12,-9999.0,Calm,Calm,-,N/A,,Unknown,0,2012-07-10 09:56:00
5:56 AM,59.0,54.0,83,30.13,-9999.0,WSW,3.5,-,N/A,,Unknown,240,2012-07-10 10:56:00
6:56 AM,62.1,57.9,86,30.13,-9999.0,Calm,Calm,-,N/A,,Unknown,0,2012-07-10 11:56:00
7:56 AM,72.0,59.0,64,30.12,-9999.0,WSW,4.6,-,N/A,,Unknown,240,2012-07-10 12:56:00
8:56 AM,77.0,57.9,52,30.12,-9999.0,West,4.6,-,N/A,,Unknown,260,2012-07-10 13:56:00
9:56 AM,80.1,55.0,42,30.12,-9999.0,WSW,4.6,-,N/A,,Unknown,250,2012-07-10 14:56:00
10:56 AM,82.0,54.0,38,30.12,-9999.0,West,4.6,-,N/A,,Unknown,270,2012-07-10 15:56:00
11:56 AM,82.9,55.0,38,30.11,-9999.0,Calm,Calm,-,N/A,,Unknown,0,2012-07-10 16:56:00
12:56 PM,84.0,55.9,38,30.10,-9999.0,Variable,3.5,-,N/A,,Unknown,0,2012-07-10 17:56:00
1:56 PM,84.0,57.0,40,30.09,-9999.0,SE,5.8,-,N/A,,Unknown,140,2012-07-10 18:56:00
2:56 PM,84.9,57.0,38,30.07,-9999.0,SE,5.8,-,N/A,,Unknown,130,2012-07-10 19:56:00
3:56 PM,84.9,57.0,38,30.06,-9999.0,SSE,8.1,16.1,N/A,,Unknown,160,2012-07-10 20:56:00
4:56 PM,84.9,57.0,38,30.04,-9999.0,South,9.2,-,N/A,,Unknown,180,2012-07-10 21:56:00
5:56 PM,84.0,57.0,40,30.04,-9999.0,South,12.7,-,N/A,,Unknown,170,2012-07-10 22:56:00
6:56 PM,82.9,57.9,42,30.02,-9999.0,SSE,11.5,-,N/A,,Unknown,160,2012-07-10 23:56:00
7:56 PM,81.0,60.1,49,30.01,-9999.0,South,9.2,-,N/A,,Unknown,170,2012-07-11 00:56:00
8:56 PM,75.0,62.1,64,30.00,-9999.0,SSE,5.8,-,N/A,,Unknown,160,2012-07-11 01:56:00
9:56 PM,69.1,61.0,75,30.01,-9999.0,South,6.9,-,N/A,,Unknown,180,2012-07-11 02:56:00
10:56 PM,68.0,61.0,78,30.01,-9999.0,SSW,5.8,-,N/A,,Unknown,200,2012-07-11 03:56:00
11:56 PM,66.9,60.1,79,30.02,-9999.0,South,6.9,-,N/A,,Unknown,190,2012-07-11 04:56:00